TJS-10

Last updated on Sun Jun 21 2026 00:03:09 GMT+0000 (Coordinated Universal Time)

1 58204U 23169A 26171.41031205 -.00000255 00000+0 00000+0 0 9994 2 58204 2.5538 80.4555 0003823 108.2378 320.0657 1.00273826 9579
UTC large
Height (km)
Speed (km/s)
/
Latitude / Longitude
Inclination (degrees)
Orbital Period (minutes)
Azimuth
Elevation
Range (km)
Doppler Factor

Next 0 passes for location: London (51.5072 / 0.1276)

No passes found over London.
TJS-10